{"data":{"norad_id":57856,"intl_designator":"2023-141S","name":"STARLINK-30291","alt_names":[],"object_type":"PAYLOAD","status":"ACTIVE","operator":null,"country":"US","launch_date":"2023-09-12","launch_site_code":"AFWTR","launch_vehicle":null,"mission":null,"orbit_class":"UNKNOWN","rcs_meters":null,"size_class":null,"mass_kg":null,"dimensions":null,"purposes":["comms"],"wikipedia_slug":null,"has_3d_model":false,"image_url":null,"decayed_at":null,"tle_current":{"epoch":"2026-05-25T02:47:00.026592Z","epoch_age_seconds":65847,"freshness":"FRESH","line1":"1 57856U 23141S   26145.11597253 -.00001065  00000+0 -22574-4 0  9990","line2":"2 57856  53.1599 288.8133 0001353  96.4899 263.6257 15.31695646152033","mean_motion":15.31695646,"eccentricity":0.0001353,"inclination_deg":53.1599,"raan_deg":288.8133,"arg_perigee_deg":96.4899,"mean_anomaly_deg":263.6257,"bstar":-2.2574e-5,"rev_number":15203,"period_min":94.013455203097,"perigee_km":469.82631949031,"apogee_km":471.67962911735,"semimajor_km":6848.8899743038,"source":"CELESTRAK","updated_at":"2026-05-25T13:38:18.416601Z"}}}